Time,TemperatureF,DewpointF,PressureIn,WindDirection,WindDirectionDegrees,WindSpeedMPH,WindSpeedGustMPH,Humidity,HourlyPrecipIn,Conditions,Clouds,dailyrainin,SoftwareType,DateUTC
2013-02-19 00:00:00,39.3,24.9,30.27,ESE,111,0.0,1.0,56,0.00,,SCT180,0.00,VWS V14.01,2013-02-19 05:00:00,
2013-02-19 00:05:00,39.1,25.2,30.27,SSE,150,0.0,3.0,57,0.00,,SCT180,0.00,VWS V14.01,2013-02-19 05:05:00,
2013-02-19 00:10:00,38.8,25.3,30.27,SE,129,0.0,3.0,58,0.00,,SCT180,0.00,VWS V14.01,2013-02-19 05:10:00,
2013-02-19 00:15:00,38.6,25.1,30.26,SSE,147,1.0,2.0,58,0.00,,SCT180,0.00,VWS V14.01,2013-02-19 05:15:00,
2013-02-19 00:20:00,38.5,25.4,30.26,SE,139,0.0,2.0,59,0.00,,SCT180,0.00,VWS V14.01,2013-02-19 05:20:00,
2013-02-19 00:25:00,38.4,25.3,30.26,SSE,154,0.0,2.0,59,0.00,,SCT180,0.00,VWS V14.01,2013-02-19 05:25:00,
2013-02-19 00:30:00,38.4,25.3,30.26,ESE,122,0.0,1.0,59,0.00,,SCT180,0.00,VWS V14.01,2013-02-19 05:30:00,
2013-02-19 00:35:00,38.3,25.2,30.25,East,95,0.0,2.0,59,0.00,,SCT180,0.00,VWS V14.01,2013-02-19 05:35:00,
2013-02-19 00:40:00,38.2,25.5,30.25,SE,134,0.0,2.0,60,0.00,,SCT180,0.00,VWS V14.01,2013-02-19 05:40:00,
2013-02-19 00:45:00,38.0,25.4,30.25,SSE,160,0.0,1.0,60,0.00,,SCT180,0.00,VWS V14.01,2013-02-19 05:45:00,
2013-02-19 00:50:00,37.9,25.7,30.25,SE,134,0.0,2.0,61,0.00,,SCT180,0.00,VWS V14.01,2013-02-19 05:50:00,
2013-02-19 00:55:00,37.7,25.5,30.25,SE,134,0.0,1.0,61,0.00,,SCT180,0.00,VWS V14.01,2013-02-19 05:55:00,
2013-02-19 01:00:00,37.3,25.5,30.25,SE,134,0.0,1.0,62,0.00,,FEW180,0.00,VWS V14.01,2013-02-19 06:00:00,
2013-02-19 01:05:00,36.8,25.4,30.25,NNE,27,0.0,1.0,63,0.00,,FEW180,0.00,VWS V14.01,2013-02-19 06:05:00,
2013-02-19 01:10:00,36.7,25.7,30.25,SSE,154,0.0,1.0,64,0.00,,FEW180,0.00,VWS V14.01,2013-02-19 06:10:00,
2013-02-19 01:15:00,36.7,25.7,30.25,ESE,120,0.0,2.0,64,0.00,,FEW180,0.00,VWS V14.01,2013-02-19 06:15:00,
2013-02-19 01:20:00,36.7,26.8,30.25,ESE,121,0.0,0.0,67,0.00,,FEW180,0.00,VWS V14.01,2013-02-19 06:20:00,
2013-02-19 01:25:00,36.5,25.9,30.25,ESE,121,0.0,1.0,65,0.00,,FEW180,0.00,VWS V14.01,2013-02-19 06:25:00,
2013-02-19 01:30:00,36.1,25.9,30.25,ESE,121,0.0,1.0,66,0.00,,FEW180,0.00,VWS V14.01,2013-02-19 06:30:00,
2013-02-19 01:35:00,35.7,26.2,30.25,ESE,121,0.0,1.0,68,0.00,,FEW180,0.00,VWS V14.01,2013-02-19 06:35:00,
2013-02-19 01:40:00,35.2,26.1,30.24,ESE,121,0.0,0.0,69,0.00,,FEW180,0.00,VWS V14.01,2013-02-19 06:40:00,
2013-02-19 01:45:00,34.5,26.4,30.24,ESE,120,0.0,0.0,72,0.00,,FEW180,0.00,VWS V14.01,2013-02-19 06:45:00,
2013-02-19 01:50:00,34.0,26.3,30.24,ESE,121,0.0,0.0,73,0.00,,FEW180,0.00,VWS V14.01,2013-02-19 06:50:00,
2013-02-19 01:55:00,33.3,26.2,30.24,ESE,120,0.0,1.0,75,0.00,,FEW180,0.00,VWS V14.01,2013-02-19 06:55:00,
2013-02-19 02:00:00,32.6,25.6,30.23,ESE,120,0.0,1.0,75,0.00,,FEW180,0.00,VWS V14.01,2013-02-19 07:00:00,
2013-02-19 02:05:00,32.0,25.6,30.23,ESE,120,0.0,1.0,77,0.00,,FEW180,0.00,VWS V14.01,2013-02-19 07:05:00,
2013-02-19 02:10:00,31.7,26.2,30.23,ESE,120,0.0,0.0,80,0.00,,FEW180,0.00,VWS V14.01,2013-02-19 07:10:00,
2013-02-19 02:15:00,31.4,26.5,30.23,ESE,120,0.0,0.0,82,0.00,,FEW180,0.00,VWS V14.01,2013-02-19 07:15:00,
2013-02-19 02:20:00,31.1,26.8,30.22,ESE,120,0.0,0.0,84,0.00,,FEW180,0.00,VWS V14.01,2013-02-19 07:20:00,
2013-02-19 02:25:00,30.9,26.9,30.22,ESE,120,0.0,1.0,85,0.00,,FEW180,0.00,VWS V14.01,2013-02-19 07:25:00,
2013-02-19 02:30:00,30.7,26.7,30.22,ESE,120,0.0,1.0,85,0.00,,FEW180,0.00,VWS V14.01,2013-02-19 07:30:00,
2013-02-19 02:35:00,30.4,26.1,30.22,ESE,120,1.0,1.0,84,0.00,,FEW180,0.00,VWS V14.01,2013-02-19 07:35:00,
2013-02-19 02:40:00,30.3,26.1,30.22,ESE,120,0.0,1.0,84,0.00,,FEW180,0.00,VWS V14.01,2013-02-19 07:40:00,
2013-02-19 02:45:00,30.2,26.0,30.21,ESE,120,0.0,1.0,84,0.00,,FEW180,0.00,VWS V14.01,2013-02-19 07:45:00,
2013-02-19 02:50:00,30.3,26.1,30.22,ESE,120,0.0,1.0,84,0.00,,FEW180,0.00,VWS V14.01,2013-02-19 07:50:00,
2013-02-19 02:55:00,30.5,26.5,30.21,ESE,120,0.0,1.0,85,0.00,,FEW180,0.00,VWS V14.01,2013-02-19 07:55:00,
2013-02-19 03:00:00,30.8,27.1,30.21,ESE,120,0.0,0.0,86,0.00,,BKN043,0.00,VWS V14.01,2013-02-19 08:00:00,
2013-02-19 03:05:00,31.0,27.6,30.20,ESE,120,0.0,1.0,87,0.00,,BKN043,0.00,VWS V14.01,2013-02-19 08:05:00,
2013-02-19 03:10:00,31.2,27.8,30.20,ESE,120,0.0,1.0,87,0.00,,BKN043,0.00,VWS V14.01,2013-02-19 08:10:00,
2013-02-19 03:15:00,31.3,27.6,30.20,ESE,120,0.0,1.0,86,0.00,,BKN043,0.00,VWS V14.01,2013-02-19 08:15:00,
2013-02-19 03:20:00,31.4,27.7,30.20,ESE,120,0.0,0.0,86,0.00,,BKN043,0.00,VWS V14.01,2013-02-19 08:20:00,
2013-02-19 03:25:00,31.4,28.0,30.19,ESE,120,0.0,0.0,87,0.00,,BKN043,0.00,VWS V14.01,2013-02-19 08:25:00,
2013-02-19 03:30:00,31.3,27.6,30.19,ESE,120,0.0,1.0,86,0.00,,BKN043,0.00,VWS V14.01,2013-02-19 08:30:00,
2013-02-19 03:35:00,31.3,27.9,30.19,ESE,120,0.0,0.0,87,0.00,,BKN043,0.00,VWS V14.01,2013-02-19 08:35:00,
2013-02-19 03:40:00,31.3,27.9,30.19,ESE,120,0.0,1.0,87,0.00,,BKN043,0.00,VWS V14.01,2013-02-19 08:40:00,
2013-02-19 03:45:00,31.2,27.8,30.19,ESE,120,0.0,0.0,87,0.00,,BKN043,0.00,VWS V14.01,2013-02-19 08:45:00,
2013-02-19 03:50:00,31.4,27.4,30.18,ESE,120,0.0,1.0,85,0.00,,BKN043,0.00,VWS V14.01,2013-02-19 08:50:00,
2013-02-19 03:55:00,31.6,27.0,30.18,ESE,120,0.0,1.0,83,0.00,,BKN043,0.00,VWS V14.01,2013-02-19 08:55:00,
2013-02-19 04:00:00,31.8,26.9,30.17,ESE,120,0.0,1.0,82,0.00,,SCT120,0.00,VWS V14.01,2013-02-19 09:00:00,
2013-02-19 04:10:00,31.2,26.6,30.17,ESE,120,0.0,1.0,83,0.00,,SCT120,0.00,VWS V14.01,2013-02-19 09:10:00,
2013-02-19 04:20:00,30.4,27.3,30.16,ESE,120,0.0,1.0,88,0.00,,SCT120,0.00,VWS V14.01,2013-02-19 09:20:00,
2013-02-19 04:25:00,30.2,27.1,30.16,East,85,0.0,1.0,88,0.00,,SCT120,0.00,VWS V14.01,2013-02-19 09:25:00,
2013-02-19 04:30:00,30.4,27.3,30.16,East,84,0.0,1.0,88,0.00,,SCT120,0.00,VWS V14.01,2013-02-19 09:30:00,
2013-02-19 04:35:00,30.3,27.2,30.15,East,84,0.0,0.0,88,0.00,,SCT120,0.00,VWS V14.01,2013-02-19 09:35:00,
2013-02-19 04:40:00,30.2,27.1,30.16,East,85,0.0,0.0,88,0.00,,SCT120,0.00,VWS V14.01,2013-02-19 09:40:00,
2013-02-19 04:45:00,30.6,27.2,30.16,East,84,0.0,1.0,87,0.00,,SCT120,0.00,VWS V14.01,2013-02-19 09:45:00,
2013-02-19 04:50:00,31.0,27.6,30.16,East,84,0.0,0.0,87,0.00,,SCT120,0.00,VWS V14.01,2013-02-19 09:50:00,
2013-02-19 04:55:00,31.0,27.3,30.16,East,84,0.0,0.0,86,0.00,,SCT120,0.00,VWS V14.01,2013-02-19 09:55:00,
2013-02-19 05:00:00,30.8,27.7,30.16,East,84,0.0,0.0,88,0.00,,FEW032,0.00,VWS V14.01,2013-02-19 10:00:00,
2013-02-19 05:05:00,30.4,27.0,30.16,East,84,0.0,0.0,87,0.00,,FEW032,0.00,VWS V14.01,2013-02-19 10:05:00,
2013-02-19 05:10:00,30.2,27.1,30.15,East,84,0.0,0.0,88,0.00,,FEW032,0.00,VWS V14.01,2013-02-19 10:10:00,
2013-02-19 05:15:00,30.1,27.3,30.16,East,84,0.0,0.0,89,0.00,,FEW032,0.00,VWS V14.01,2013-02-19 10:15:00,
2013-02-19 05:20:00,30.0,27.2,30.15,East,84,0.0,0.0,89,0.00,,FEW032,0.00,VWS V14.01,2013-02-19 10:20:00,
2013-02-19 05:25:00,29.8,26.7,30.15,East,84,0.0,0.0,88,0.00,,FEW032,0.00,VWS V14.01,2013-02-19 10:25:00,
2013-02-19 05:30:00,29.5,26.7,30.14,East,84,0.0,0.0,89,0.00,,FEW032,0.00,VWS V14.01,2013-02-19 10:30:00,
2013-02-19 05:35:00,29.3,26.5,30.14,East,84,0.0,0.0,89,0.00,,FEW032,0.00,VWS V14.01,2013-02-19 10:35:00,
2013-02-19 05:40:00,29.3,26.5,30.15,East,84,0.0,0.0,89,0.00,,FEW032,0.00,VWS V14.01,2013-02-19 10:40:00,
2013-02-19 05:45:00,29.4,26.6,30.15,East,84,0.0,0.0,89,0.00,,FEW032,0.00,VWS V14.01,2013-02-19 10:45:00,
2013-02-19 05:50:00,29.4,26.8,30.15,East,84,0.0,0.0,90,0.00,,FEW032,0.00,VWS V14.01,2013-02-19 10:50:00,
2013-02-19 05:55:00,29.4,26.8,30.15,East,84,0.0,0.0,90,0.00,,FEW032,0.00,VWS V14.01,2013-02-19 10:55:00,
2013-02-19 06:00:00,29.4,26.6,30.15,East,84,0.0,0.0,89,0.00,,SCT120,0.00,VWS V14.01,2013-02-19 11:00:00,
2013-02-19 06:05:00,29.4,26.6,30.14,East,84,0.0,0.0,89,0.00,,SCT120,0.00,VWS V14.01,2013-02-19 11:05:00,
2013-02-19 06:10:00,29.3,26.5,30.15,East,84,0.0,0.0,89,0.00,,SCT120,0.00,VWS V14.01,2013-02-19 11:10:00,
2013-02-19 06:15:00,29.2,26.4,30.14,East,84,0.0,0.0,89,0.00,,SCT120,0.00,VWS V14.01,2013-02-19 11:15:00,
2013-02-19 06:20:00,29.1,26.3,30.13,East,92,0.0,0.0,89,0.00,,SCT120,0.00,VWS V14.01,2013-02-19 11:20:00,
2013-02-19 06:25:00,29.2,26.4,30.13,East,90,0.0,0.0,89,0.00,,SCT120,0.00,VWS V14.01,2013-02-19 11:25:00,
2013-02-19 06:30:00,29.3,26.5,30.13,East,90,0.0,0.0,89,0.00,,SCT120,0.00,VWS V14.01,2013-02-19 11:30:00,
2013-02-19 06:35:00,29.4,26.8,30.13,East,93,0.0,0.0,90,0.00,,SCT120,0.00,VWS V14.01,2013-02-19 11:35:00,
2013-02-19 06:40:00,29.8,27.2,30.12,East,93,0.0,0.0,90,0.00,,SCT120,0.00,VWS V14.01,2013-02-19 11:40:00,
2013-02-19 06:45:00,30.0,27.7,30.12,East,93,0.0,0.0,91,0.00,,SCT120,0.00,VWS V14.01,2013-02-19 11:45:00,
2013-02-19 06:50:00,30.2,27.6,30.12,East,93,0.0,0.0,90,0.00,,SCT120,0.00,VWS V14.01,2013-02-19 11:50:00,
2013-02-19 07:00:00,30.6,27.8,30.12,East,93,0.0,0.0,89,0.00,,BKN120,0.00,VWS V14.01,2013-02-19 12:00:00,
2013-02-19 07:05:00,30.8,28.0,30.12,East,93,0.0,0.0,89,0.00,,BKN120,0.00,VWS V14.01,2013-02-19 12:05:00,
2013-02-19 07:10:00,31.6,28.7,30.12,East,93,0.0,0.0,89,0.00,,BKN120,0.00,VWS V14.01,2013-02-19 12:10:00,
2013-02-19 07:15:00,32.2,29.0,30.11,East,96,0.0,0.0,88,0.00,,BKN120,0.00,VWS V14.01,2013-02-19 12:15:00,
2013-02-19 07:20:00,32.6,29.5,30.11,East,96,0.0,0.0,88,0.00,,BKN120,0.00,VWS V14.01,2013-02-19 12:20:00,
2013-02-19 07:25:00,33.8,30.1,30.11,East,96,0.0,0.0,86,0.00,,BKN120,0.00,VWS V14.01,2013-02-19 12:25:00,
2013-02-19 07:30:00,34.4,30.4,30.11,ESE,105,0.0,0.0,85,0.00,,BKN120,0.00,VWS V14.01,2013-02-19 12:30:00,
2013-02-19 07:35:00,34.6,30.6,30.11,ESE,105,0.0,0.0,85,0.00,,BKN120,0.00,VWS V14.01,2013-02-19 12:35:00,
2013-02-19 07:40:00,34.8,30.8,30.12,ESE,105,0.0,0.0,85,0.00,,BKN120,0.00,VWS V14.01,2013-02-19 12:40:00,
2013-02-19 07:45:00,35.1,30.8,30.11,ESE,115,0.0,1.0,84,0.00,,BKN120,0.00,VWS V14.01,2013-02-19 12:45:00,
2013-02-19 07:50:00,35.3,31.0,30.12,ESE,115,0.0,1.0,84,0.00,,BKN120,0.00,VWS V14.01,2013-02-19 12:50:00,
2013-02-19 07:55:00,35.7,31.0,30.12,SSE,160,0.0,0.0,83,0.00,,BKN120,0.00,VWS V14.01,2013-02-19 12:55:00,
2013-02-19 08:00:00,36.4,31.4,30.12,SSE,160,0.0,2.0,82,0.00,,BKN200,0.00,VWS V14.01,2013-02-19 13:00:00,
2013-02-19 08:05:00,36.7,31.7,30.11,SSE,148,0.0,0.0,82,0.00,,BKN200,0.00,VWS V14.01,2013-02-19 13:05:00,
2013-02-19 08:10:00,36.9,31.9,30.11,SE,146,0.0,0.0,82,0.00,,BKN200,0.00,VWS V14.01,2013-02-19 13:10:00,
2013-02-19 08:15:00,37.3,32.0,30.11,SE,146,0.0,0.0,81,0.00,,BKN200,0.00,VWS V14.01,2013-02-19 13:15:00,
2013-02-19 08:20:00,38.0,32.7,30.11,SSW,207,0.0,1.0,81,0.00,,BKN200,0.00,VWS V14.01,2013-02-19 13:20:00,
2013-02-19 08:25:00,38.8,33.2,30.10,ESE,115,0.0,2.0,80,0.00,,BKN200,0.00,VWS V14.01,2013-02-19 13:25:00,
2013-02-19 08:30:00,39.3,33.7,30.10,ESE,106,0.0,1.0,80,0.00,,BKN200,0.00,VWS V14.01,2013-02-19 13:30:00,
2013-02-19 08:35:00,39.7,33.7,30.10,SSE,163,0.0,0.0,79,0.00,,BKN200,0.00,VWS V14.01,2013-02-19 13:35:00,
2013-02-19 08:40:00,40.1,34.1,30.10,West,271,0.0,0.0,79,0.00,,BKN200,0.00,VWS V14.01,2013-02-19 13:40:00,
2013-02-19 08:45:00,40.6,34.6,30.10,SSW,201,0.0,0.0,79,0.00,,BKN200,0.00,VWS V14.01,2013-02-19 13:45:00,
2013-02-19 08:50:00,40.8,34.8,30.09,South,176,0.0,0.0,79,0.00,,BKN200,0.00,VWS V14.01,2013-02-19 13:50:00,
2013-02-19 08:55:00,41.1,35.1,30.09,South,173,0.0,0.0,79,0.00,,BKN200,0.00,VWS V14.01,2013-02-19 13:55:00,
2013-02-19 09:00:00,41.5,35.5,30.09,ENE,73,0.0,1.0,79,0.00,,OVC200,0.00,VWS V14.01,2013-02-19 14:00:00,
2013-02-19 09:10:00,42.4,36.7,30.08,SSE,163,0.0,1.0,80,0.00,,OVC200,0.00,VWS V14.01,2013-02-19 14:10:00,
2013-02-19 09:15:00,42.9,36.8,30.08,SSE,168,0.0,1.0,79,0.00,,OVC200,0.00,VWS V14.01,2013-02-19 14:15:00,
2013-02-19 09:20:00,43.6,37.5,30.08,SE,141,0.0,1.0,79,0.00,,OVC200,0.00,VWS V14.01,2013-02-19 14:20:00,
2013-02-19 09:25:00,44.3,37.9,30.07,West,274,0.0,1.0,78,0.00,,OVC200,0.00,VWS V14.01,2013-02-19 14:25:00,
2013-02-19 09:30:00,44.7,37.9,30.08,WSW,251,0.0,1.0,77,0.00,,OVC200,0.00,VWS V14.01,2013-02-19 14:30:00,
2013-02-19 09:35:00,45.2,38.4,30.08,SW,214,0.0,3.0,77,0.00,,OVC200,0.00,VWS V14.01,2013-02-19 14:35:00,
2013-02-19 09:40:00,45.5,38.4,30.08,ESE,112,0.0,1.0,76,0.00,,OVC200,0.00,VWS V14.01,2013-02-19 14:40:00,
2013-02-19 09:45:00,45.8,38.7,30.08,SW,229,2.0,5.0,76,0.00,,OVC200,0.00,VWS V14.01,2013-02-19 14:45:00,
2013-02-19 09:50:00,46.2,39.1,30.08,South,183,0.0,5.0,76,0.00,,OVC200,0.00,VWS V14.01,2013-02-19 14:50:00,
2013-02-19 09:55:00,46.5,39.4,30.07,West,261,1.0,3.0,76,0.00,,OVC200,0.00,VWS V14.01,2013-02-19 14:55:00,
2013-02-19 10:00:00,46.9,39.4,30.07,SE,144,2.0,3.0,75,0.00,,-RA,0.00,VWS V14.01,2013-02-19 15:00:00,
2013-02-19 10:05:00,47.2,39.7,30.06,SSE,163,4.0,5.0,75,0.00,,-RA,0.00,VWS V14.01,2013-02-19 15:05:00,
2013-02-19 10:10:00,47.3,39.8,30.06,SSW,203,0.0,4.0,75,0.00,,-RA,0.00,VWS V14.01,2013-02-19 15:10:00,
2013-02-19 10:15:00,47.4,39.9,30.06,SSE,158,2.0,5.0,75,0.00,,-RA,0.00,VWS V14.01,2013-02-19 15:15:00,
2013-02-19 10:20:00,47.5,39.6,30.06,South,176,0.0,4.0,74,0.00,,-RA,0.00,VWS V14.01,2013-02-19 15:20:00,
2013-02-19 10:25:00,47.6,40.1,30.06,SSE,168,1.0,4.0,75,0.00,,-RA,0.00,VWS V14.01,2013-02-19 15:25:00,
2013-02-19 10:30:00,47.7,40.2,30.06,WSW,257,1.0,2.0,75,0.00,,-RA,0.00,VWS V14.01,2013-02-19 15:30:00,
2013-02-19 10:35:00,47.9,40.7,30.05,SSE,156,0.0,4.0,76,0.00,,-RA,0.00,VWS V14.01,2013-02-19 15:35:00,
2013-02-19 10:40:00,48.4,41.5,30.05,South,177,0.0,3.0,77,0.00,,-RA,0.00,VWS V14.01,2013-02-19 15:40:00,
2013-02-19 10:45:00,48.8,41.6,30.05,NNE,23,2.0,3.0,76,0.00,,-RA,0.00,VWS V14.01,2013-02-19 15:45:00,
2013-02-19 10:50:00,48.9,41.7,30.05,West,268,2.0,4.0,76,0.00,,-RA,0.00,VWS V14.01,2013-02-19 15:50:00,
2013-02-19 10:55:00,49.2,42.0,30.04,SE,143,2.0,5.0,76,0.00,,-RA,0.00,VWS V14.01,2013-02-19 15:55:00,
2013-02-19 11:00:00,49.3,42.4,30.04,SW,230,0.0,2.0,77,0.00,,-RA,0.00,VWS V14.01,2013-02-19 16:00:00,
2013-02-19 11:10:00,49.7,43.1,30.03,WSW,258,1.0,3.0,78,0.00,,-RA,0.00,VWS V14.01,2013-02-19 16:10:00,
2013-02-19 11:15:00,50.1,43.5,30.03,West,272,0.0,6.0,78,0.00,,-RA,0.00,VWS V14.01,2013-02-19 16:15:00,
2013-02-19 11:20:00,50.5,44.2,30.03,West,271,2.0,7.0,79,0.00,,-RA,0.00,VWS V14.01,2013-02-19 16:20:00,
2013-02-19 11:25:00,50.8,44.2,30.03,SSW,212,4.0,7.0,78,0.00,,-RA,0.00,VWS V14.01,2013-02-19 16:25:00,
2013-02-19 11:30:00,51.2,44.6,30.03,South,186,2.0,7.0,78,0.00,,-RA,0.00,VWS V14.01,2013-02-19 16:30:00,
2013-02-19 11:35:00,51.2,44.9,30.02,WNW,290,6.0,10.0,79,0.01,,-RA,0.01,VWS V14.01,2013-02-19 16:35:00,
2013-02-19 11:40:00,51.0,45.4,30.02,SSE,164,5.0,13.0,81,0.01,,-RA,0.01,VWS V14.01,2013-02-19 16:40:00,
2013-02-19 11:45:00,50.8,45.5,30.02,WNW,289,2.0,11.0,82,0.01,,-RA,0.01,VWS V14.01,2013-02-19 16:45:00,
2013-02-19 11:50:00,50.6,45.6,30.02,SSW,201,4.0,11.0,83,0.01,,-RA,0.01,VWS V14.01,2013-02-19 16:50:00,
2013-02-19 12:00:00,50.4,46.1,30.01,WSW,257,1.0,15.0,85,0.02,,-RA,0.02,VWS V14.01,2013-02-19 17:00:00,
2013-02-19 12:05:00,50.3,46.0,30.00,SE,124,4.0,11.0,85,0.02,,-RA,0.02,VWS V14.01,2013-02-19 17:05:00,
2013-02-19 12:10:00,50.3,46.0,30.00,West,280,0.0,9.0,85,0.02,,-RA,0.02,VWS V14.01,2013-02-19 17:10:00,
2013-02-19 12:15:00,50.3,46.3,29.99,SW,214,2.0,7.0,86,0.02,,-RA,0.02,VWS V14.01,2013-02-19 17:15:00,
2013-02-19 12:20:00,50.3,46.3,29.98,East,87,0.0,5.0,86,0.02,,-RA,0.02,VWS V14.01,2013-02-19 17:20:00,
2013-02-19 12:25:00,50.4,46.4,29.98,SSW,202,1.0,6.0,86,0.02,,-RA,0.02,VWS V14.01,2013-02-19 17:25:00,
2013-02-19 12:30:00,50.6,46.6,29.98,West,259,3.0,6.0,86,0.02,,-RA,0.02,VWS V14.01,2013-02-19 17:30:00,
2013-02-19 12:35:00,51.1,46.8,29.98,West,271,1.0,12.0,85,0.02,,-RA,0.02,VWS V14.01,2013-02-19 17:35:00,
2013-02-19 12:40:00,51.6,47.2,29.98,West,270,5.0,7.0,85,0.01,,-RA,0.02,VWS V14.01,2013-02-19 17:40:00,
2013-02-19 12:45:00,52.0,47.3,29.97,SW,218,9.0,9.0,84,0.01,,-RA,0.02,VWS V14.01,2013-02-19 17:45:00,
2013-02-19 12:50:00,52.1,47.1,29.97,WSW,255,3.0,10.0,83,0.01,,-RA,0.02,VWS V14.01,2013-02-19 17:50:00,
2013-02-19 13:00:00,52.2,47.2,29.96,SSE,165,3.0,8.0,83,0.00,,-RA,0.02,VWS V14.01,2013-02-19 18:00:00,
2013-02-19 13:05:00,52.3,47.3,29.96,West,281,0.0,10.0,83,0.00,,-RA,0.02,VWS V14.01,2013-02-19 18:05:00,
2013-02-19 13:10:00,52.4,47.4,29.95,WSW,242,3.0,8.0,83,0.00,,-RA,0.02,VWS V14.01,2013-02-19 18:10:00,
2013-02-19 13:15:00,52.5,47.5,29.94,WSW,238,3.0,13.0,83,0.00,,-RA,0.02,VWS V14.01,2013-02-19 18:15:00,
2013-02-19 13:20:00,52.5,47.5,29.93,SE,134,3.0,9.0,83,0.00,,-RA,0.02,VWS V14.01,2013-02-19 18:20:00,
2013-02-19 13:25:00,52.8,47.8,29.93,WNW,283,3.0,11.0,83,0.00,,-RA,0.02,VWS V14.01,2013-02-19 18:25:00,
2013-02-19 13:30:00,53.0,48.0,29.92,WNW,289,7.0,16.0,83,0.00,,-RA,0.02,VWS V14.01,2013-02-19 18:30:00,
2013-02-19 13:35:00,53.2,47.9,29.91,SSE,158,2.0,10.0,82,0.00,,-RA,0.02,VWS V14.01,2013-02-19 18:35:00,
2013-02-19 13:40:00,53.4,48.0,29.91,WSW,239,1.0,9.0,82,0.00,,-RA,0.02,VWS V14.01,2013-02-19 18:40:00,
2013-02-19 13:45:00,53.6,47.9,29.90,SE,146,4.0,14.0,81,0.00,,-RA,0.02,VWS V14.01,2013-02-19 18:45:00,
2013-02-19 13:50:00,53.9,48.2,29.90,SSW,207,8.0,9.0,81,0.00,,-RA,0.02,VWS V14.01,2013-02-19 18:50:00,
2013-02-19 13:55:00,54.1,48.4,29.89,SSW,203,4.0,11.0,81,0.00,,-RA,0.02,VWS V14.01,2013-02-19 18:55:00,
2013-02-19 14:00:00,54.4,48.7,29.89,SW,235,6.0,9.0,81,0.00,,,0.02,VWS V14.01,2013-02-19 19:00:00,
2013-02-19 14:05:00,54.5,48.8,29.89,WSW,240,4.0,13.0,81,0.00,,OVC030,0.02,VWS V14.01,2013-02-19 19:05:00,
2013-02-19 14:15:00,54.6,48.9,29.89,SSE,164,14.0,18.0,81,0.00,,-RA,0.02,VWS V14.01,2013-02-19 19:15:00,
2013-02-19 14:20:00,54.7,49.3,29.89,WSW,250,3.0,18.0,82,0.00,,-RA,0.02,VWS V14.01,2013-02-19 19:20:00,
2013-02-19 14:25:00,54.3,49.6,29.89,West,266,6.0,16.0,84,0.01,,-RA,0.03,VWS V14.01,2013-02-19 19:25:00,
2013-02-19 14:30:00,53.7,49.9,29.89,WNW,287,2.0,13.0,87,0.01,,-RA,0.03,VWS V14.01,2013-02-19 19:30:00,
2013-02-19 14:35:00,53.3,50.2,29.89,West,263,5.0,11.0,89,0.02,,-RA,0.04,VWS V14.01,2013-02-19 19:35:00,
2013-02-19 14:40:00,53.0,50.2,29.88,WSW,250,4.0,10.0,90,0.02,,-RA,0.04,VWS V14.01,2013-02-19 19:40:00,
2013-02-19 14:45:00,52.8,50.5,29.88,WNW,295,2.0,8.0,92,0.03,,-RA,0.05,VWS V14.01,2013-02-19 19:45:00,
2013-02-19 14:50:00,52.6,50.3,29.88,WNW,285,3.0,7.0,92,0.04,,-RA,0.06,VWS V14.01,2013-02-19 19:50:00,
2013-02-19 14:55:00,52.7,50.5,29.88,NE,46,1.0,6.0,92,0.04,,-RA,0.06,VWS V14.01,2013-02-19 19:55:00,
2013-02-19 15:00:00,52.7,50.7,29.88,NW,309,1.0,8.0,93,0.05,,,0.07,VWS V14.01,2013-02-19 20:00:00,
2013-02-19 15:05:00,52.6,50.6,29.88,West,274,4.0,9.0,93,0.05,,,0.07,VWS V14.01,2013-02-19 20:05:00,
2013-02-19 15:10:00,52.6,50.6,29.88,West,274,1.0,5.0,93,0.06,,,0.08,VWS V14.01,2013-02-19 20:10:00,
2013-02-19 15:15:00,52.5,50.5,29.88,WNW,294,3.0,6.0,93,0.06,,,0.08,VWS V14.01,2013-02-19 20:15:00,
2013-02-19 15:20:00,52.5,50.8,29.87,SW,235,6.0,7.0,94,0.06,,,0.08,VWS V14.01,2013-02-19 20:20:00,
2013-02-19 15:25:00,52.5,50.8,29.87,NE,50,1.0,6.0,94,0.07,,,0.09,VWS V14.01,2013-02-19 20:25:00,
2013-02-19 15:30:00,52.5,50.8,29.87,WNW,288,3.0,7.0,94,0.06,,,0.09,VWS V14.01,2013-02-19 20:30:00,
2013-02-19 15:35:00,52.5,50.8,29.87,West,275,1.0,5.0,94,0.06,,,0.09,VWS V14.01,2013-02-19 20:35:00,
2013-02-19 15:40:00,52.6,50.9,29.87,West,273,6.0,6.0,94,0.05,,,0.09,VWS V14.01,2013-02-19 20:40:00,
2013-02-19 15:50:00,52.6,50.6,29.87,NNW,340,1.0,7.0,93,0.04,,OVC021,0.09,VWS V14.01,2013-02-19 20:50:00,
2013-02-19 15:55:00,52.6,50.6,29.86,SW,225,3.0,7.0,93,0.04,,OVC021,0.10,VWS V14.01,2013-02-19 20:55:00,
2013-02-19 16:00:00,52.7,50.7,29.86,South,169,1.0,10.0,93,0.04,,OVC021,0.10,VWS V14.01,2013-02-19 21:00:00,
2013-02-19 16:05:00,52.8,50.5,29.86,West,269,2.0,7.0,92,0.03,,OVC021,0.10,VWS V14.01,2013-02-19 21:05:00,
2013-02-19 16:10:00,52.9,50.6,29.85,SSE,162,4.0,9.0,92,0.03,,OVC021,0.10,VWS V14.01,2013-02-19 21:10:00,
2013-02-19 16:15:00,52.8,50.5,29.85,SW,221,2.0,5.0,92,0.02,,OVC021,0.10,VWS V14.01,2013-02-19 21:15:00,
2013-02-19 16:20:00,52.7,50.5,29.86,SW,236,4.0,6.0,92,0.02,,OVC021,0.10,VWS V14.01,2013-02-19 21:20:00,
2013-02-19 16:25:00,52.8,50.2,29.86,West,264,2.0,14.0,91,0.02,,OVC021,0.10,VWS V14.01,2013-02-19 21:25:00,
2013-02-19 16:30:00,52.8,50.0,29.86,WSW,241,6.0,10.0,90,0.01,,OVC021,0.10,VWS V14.01,2013-02-19 21:30:00,
2013-02-19 16:35:00,52.9,49.8,29.86,West,264,5.0,13.0,89,0.01,,OVC021,0.10,VWS V14.01,2013-02-19 21:35:00,
2013-02-19 16:40:00,52.8,49.7,29.86,WNW,298,2.0,12.0,89,0.01,,OVC023,0.10,VWS V14.01,2013-02-19 21:40:00,
2013-02-19 16:45:00,52.7,49.5,29.86,West,275,3.0,10.0,89,0.01,,OVC023,0.10,VWS V14.01,2013-02-19 21:45:00,
2013-02-19 16:55:00,52.6,49.5,29.86,SW,235,7.0,8.0,89,0.01,,OVC023,0.10,VWS V14.01,2013-02-19 21:55:00,
2013-02-19 17:00:00,52.6,49.5,29.86,WSW,245,4.0,12.0,89,0.00,,OVC023,0.10,VWS V14.01,2013-02-19 22:00:00,
2013-02-19 17:05:00,52.6,49.5,29.86,SW,233,2.0,10.0,89,0.00,,OVC023,0.10,VWS V14.01,2013-02-19 22:05:00,
2013-02-19 17:10:00,52.6,48.8,29.86,West,259,8.0,13.0,87,0.00,,OVC023,0.10,VWS V14.01,2013-02-19 22:10:00,
2013-02-19 17:15:00,52.6,48.8,29.86,West,264,5.0,10.0,87,0.00,,OVC023,0.10,VWS V14.01,2013-02-19 22:15:00,
2013-02-19 17:20:00,52.5,48.8,29.86,WNW,290,3.0,12.0,87,0.00,,OVC023,0.10,VWS V14.01,2013-02-19 22:20:00,
2013-02-19 17:25:00,52.5,48.8,29.86,WNW,285,5.0,13.0,87,0.00,,OVC023,0.10,VWS V14.01,2013-02-19 22:25:00,
2013-02-19 17:30:00,52.4,48.7,29.87,WNW,282,4.0,8.0,87,0.00,,OVC023,0.10,VWS V14.01,2013-02-19 22:30:00,
2013-02-19 17:35:00,52.3,48.5,29.87,WNW,287,6.0,10.0,87,0.00,,OVC023,0.10,VWS V14.01,2013-02-19 22:35:00,
2013-02-19 17:40:00,52.2,48.2,29.87,West,264,4.0,8.0,86,0.00,,OVC023,0.10,VWS V14.01,2013-02-19 22:40:00,
2013-02-19 17:45:00,52.1,48.4,29.87,West,259,5.0,7.0,87,0.00,,OVC023,0.10,VWS V14.01,2013-02-19 22:45:00,
2013-02-19 17:50:00,52.0,48.3,29.88,West,271,2.0,7.0,87,0.00,,OVC023,0.10,VWS V14.01,2013-02-19 22:50:00,
2013-02-19 17:55:00,51.9,48.2,29.88,West,275,5.0,12.0,87,0.00,,OVC023,0.10,VWS V14.01,2013-02-19 22:55:00,
2013-02-19 18:00:00,51.7,48.0,29.89,WSW,253,4.0,7.0,87,0.00,,OVC029,0.10,VWS V14.01,2013-02-19 23:00:00,
2013-02-19 18:05:00,51.6,47.9,29.89,West,274,1.0,10.0,87,0.00,,OVC029,0.10,VWS V14.01,2013-02-19 23:05:00,
2013-02-19 18:10:00,51.5,47.8,29.89,SW,231,7.0,7.0,87,0.00,,OVC029,0.10,VWS V14.01,2013-02-19 23:10:00,
2013-02-19 18:15:00,51.3,47.6,29.89,WNW,285,1.0,6.0,87,0.00,,OVC029,0.10,VWS V14.01,2013-02-19 23:15:00,
2013-02-19 18:20:00,51.2,47.5,29.89,WSW,249,3.0,8.0,87,0.00,,OVC029,0.10,VWS V14.01,2013-02-19 23:20:00,
2013-02-19 18:25:00,51.1,47.1,29.89,West,267,4.0,8.0,86,0.00,,OVC029,0.10,VWS V14.01,2013-02-19 23:25:00,
2013-02-19 18:30:00,51.0,46.7,29.90,West,259,3.0,8.0,85,0.00,,OVC029,0.10,VWS V14.01,2013-02-19 23:30:00,
2013-02-19 18:35:00,50.7,46.7,29.90,SW,221,1.0,5.0,86,0.00,,OVC029,0.10,VWS V14.01,2013-02-19 23:35:00,
2013-02-19 18:40:00,50.5,46.5,29.90,WSW,255,4.0,4.0,86,0.00,,OVC029,0.10,VWS V14.01,2013-02-19 23:40:00,
2013-02-19 18:45:00,50.4,46.4,29.90,SSW,210,2.0,5.0,86,0.00,,OVC029,0.10,VWS V14.01,2013-02-19 23:45:00,
2013-02-19 18:50:00,50.4,46.1,29.90,WSW,257,2.0,8.0,85,0.00,,OVC029,0.10,VWS V14.01,2013-02-19 23:50:00,
2013-02-19 18:55:00,50.3,45.7,29.90,SW,231,3.0,6.0,84,0.00,,OVC029,0.10,VWS V14.01,2013-02-19 23:55:00,
2013-02-19 19:00:00,50.1,45.5,29.91,West,266,5.0,9.0,84,0.00,,BKN030,0.10,VWS V14.01,2013-02-20 00:00:00,
2013-02-19 19:05:00,50.0,45.4,29.91,WSW,247,2.0,7.0,84,0.00,,BKN030,0.10,VWS V14.01,2013-02-20 00:05:00,
2013-02-19 19:10:00,49.8,45.2,29.91,WSW,251,2.0,6.0,84,0.00,,BKN030,0.10,VWS V14.01,2013-02-20 00:10:00,
2013-02-19 19:15:00,49.6,45.0,29.91,West,269,4.0,6.0,84,0.00,,BKN030,0.10,VWS V14.01,2013-02-20 00:15:00,
2013-02-19 19:20:00,49.6,45.0,29.92,West,269,3.0,7.0,84,0.00,,BKN030,0.10,VWS V14.01,2013-02-20 00:20:00,
2013-02-19 19:25:00,49.5,44.9,29.92,WNW,284,3.0,7.0,84,0.00,,BKN030,0.10,VWS V14.01,2013-02-20 00:25:00,
2013-02-19 19:30:00,49.3,45.0,29.92,WSW,240,2.0,7.0,85,0.00,,BKN030,0.10,VWS V14.01,2013-02-20 00:30:00,
2013-02-19 19:35:00,49.1,44.8,29.92,West,277,3.0,6.0,85,0.00,,BKN030,0.10,VWS V14.01,2013-02-20 00:35:00,
2013-02-19 19:40:00,49.1,44.8,29.92,West,266,1.0,5.0,85,0.00,,BKN030,0.10,VWS V14.01,2013-02-20 00:40:00,
2013-02-19 19:45:00,48.8,44.8,29.92,WSW,254,4.0,4.0,86,0.00,,BKN030,0.10,VWS V14.01,2013-02-20 00:45:00,
2013-02-19 19:50:00,48.6,44.6,29.92,SW,227,1.0,4.0,86,0.00,,BKN030,0.10,VWS V14.01,2013-02-20 00:50:00,
2013-02-19 19:55:00,48.5,44.5,29.92,SSW,192,1.0,5.0,86,0.00,,BKN030,0.10,VWS V14.01,2013-02-20 00:55:00,
2013-02-19 20:00:00,48.4,44.7,29.92,West,266,1.0,3.0,87,0.00,,SCT037,0.10,VWS V14.01,2013-02-20 01:00:00,
2013-02-19 20:05:00,48.2,44.5,29.92,WSW,244,2.0,4.0,87,0.00,,SCT037,0.10,VWS V14.01,2013-02-20 01:05:00,
2013-02-19 20:10:00,48.0,44.3,29.93,West,270,1.0,4.0,87,0.00,,SCT037,0.10,VWS V14.01,2013-02-20 01:10:00,
2013-02-19 20:15:00,47.9,44.5,29.93,West,265,2.0,4.0,88,0.00,,SCT037,0.10,VWS V14.01,2013-02-20 01:15:00,
2013-02-19 20:20:00,47.8,44.4,29.93,West,262,1.0,4.0,88,0.00,,SCT037,0.10,VWS V14.01,2013-02-20 01:20:00,
2013-02-19 20:25:00,47.6,44.2,29.93,West,271,0.0,3.0,88,0.00,,SCT037,0.10,VWS V14.01,2013-02-20 01:25:00,
2013-02-19 20:35:00,47.3,44.2,29.93,WSW,257,4.0,5.0,89,0.00,,SCT037,0.10,VWS V14.01,2013-02-20 01:35:00,
2013-02-19 20:40:00,47.2,44.1,29.93,WSW,252,1.0,7.0,89,0.00,,SCT037,0.10,VWS V14.01,2013-02-20 01:40:00,
2013-02-19 20:45:00,47.1,44.0,29.93,WSW,253,1.0,3.0,89,0.00,,SCT037,0.10,VWS V14.01,2013-02-20 01:45:00,
2013-02-19 20:50:00,47.1,44.0,29.94,West,264,0.0,5.0,89,0.00,,SCT037,0.10,VWS V14.01,2013-02-20 01:50:00,
2013-02-19 20:55:00,46.8,43.7,29.94,WSW,243,0.0,2.0,89,0.00,,SCT037,0.10,VWS V14.01,2013-02-20 01:55:00,
2013-02-19 21:00:00,46.6,43.8,29.94,WNW,285,1.0,2.0,90,0.00,,FEW040,0.10,VWS V14.01,2013-02-20 02:00:00,
2013-02-19 21:05:00,46.5,43.7,29.94,WSW,248,5.0,5.0,90,0.00,,FEW040,0.10,VWS V14.01,2013-02-20 02:05:00,
2013-02-19 21:10:00,46.4,43.6,29.94,WNW,295,3.0,4.0,90,0.00,,FEW040,0.10,VWS V14.01,2013-02-20 02:10:00,
2013-02-19 21:15:00,46.4,43.3,29.94,West,276,0.0,6.0,89,0.00,,FEW040,0.10,VWS V14.01,2013-02-20 02:15:00,
2013-02-19 21:20:00,46.3,43.2,29.95,WSW,249,0.0,3.0,89,0.00,,FEW040,0.10,VWS V14.01,2013-02-20 02:20:00,
2013-02-19 21:25:00,46.0,43.2,29.95,West,272,0.0,2.0,90,0.00,,FEW040,0.10,VWS V14.01,2013-02-20 02:25:00,
2013-02-19 21:30:00,45.9,43.1,29.95,West,264,0.0,1.0,90,0.00,,FEW040,0.10,VWS V14.01,2013-02-20 02:30:00,
2013-02-19 21:35:00,45.6,42.8,29.95,West,264,0.0,1.0,90,0.00,,FEW040,0.10,VWS V14.01,2013-02-20 02:35:00,
2013-02-19 21:40:00,45.5,43.0,29.95,West,271,0.0,1.0,91,0.00,,FEW040,0.10,VWS V14.01,2013-02-20 02:40:00,
2013-02-19 21:45:00,45.3,42.8,29.95,WSW,255,0.0,1.0,91,0.00,,FEW040,0.10,VWS V14.01,2013-02-20 02:45:00,
2013-02-19 21:50:00,45.1,42.6,29.95,West,259,0.0,3.0,91,0.00,,FEW040,0.10,VWS V14.01,2013-02-20 02:50:00,
2013-02-19 21:55:00,44.8,42.3,29.95,West,270,1.0,1.0,91,0.00,,FEW040,0.10,VWS V14.01,2013-02-20 02:55:00,
2013-02-19 22:00:00,44.9,42.4,29.95,West,281,1.0,4.0,91,0.00,,FEW040,0.10,VWS V14.01,2013-02-20 03:00:00,
2013-02-19 22:05:00,44.8,42.3,29.95,WSW,257,0.0,2.0,91,0.00,,FEW040,0.10,VWS V14.01,2013-02-20 03:05:00,
2013-02-19 22:10:00,44.7,42.2,29.95,WSW,245,3.0,3.0,91,0.00,,FEW040,0.10,VWS V14.01,2013-02-20 03:10:00,
2013-02-19 22:15:00,44.5,42.0,29.95,WSW,245,0.0,3.0,91,0.00,,FEW040,0.10,VWS V14.01,2013-02-20 03:15:00,
2013-02-19 22:20:00,44.4,41.9,29.95,West,268,0.0,2.0,91,0.00,,FEW040,0.10,VWS V14.01,2013-02-20 03:20:00,
2013-02-19 22:25:00,44.2,41.5,29.95,West,270,0.0,2.0,90,0.00,,FEW040,0.10,VWS V14.01,2013-02-20 03:25:00,
2013-02-19 22:30:00,43.6,40.9,29.95,West,270,0.0,0.0,90,0.00,,FEW040,0.10,VWS V14.01,2013-02-20 03:30:00,
2013-02-19 22:35:00,42.9,40.5,29.95,West,270,0.0,1.0,91,0.00,,FEW040,0.10,VWS V14.01,2013-02-20 03:35:00,
2013-02-19 22:40:00,42.3,40.2,29.95,West,270,0.0,0.0,92,0.00,,FEW040,0.10,VWS V14.01,2013-02-20 03:40:00,
2013-02-19 22:45:00,41.7,39.5,29.95,West,270,0.0,0.0,92,0.00,,FEW040,0.10,VWS V14.01,2013-02-20 03:45:00,
2013-02-19 22:50:00,41.2,39.3,29.95,West,270,0.0,1.0,93,0.00,,FEW040,0.10,VWS V14.01,2013-02-20 03:50:00,
2013-02-19 22:55:00,40.8,38.9,29.95,West,270,0.0,0.0,93,0.00,,FEW040,0.10,VWS V14.01,2013-02-20 03:55:00,
2013-02-19 23:00:00,40.4,38.8,29.95,West,270,0.0,0.0,94,0.00,,FEW065,0.10,VWS V14.01,2013-02-20 04:00:00,
2013-02-19 23:05:00,39.9,38.0,29.95,West,270,0.0,0.0,93,0.00,,FEW065,0.10,VWS V14.01,2013-02-20 04:05:00,
2013-02-19 23:10:00,39.7,38.1,29.95,West,270,0.0,1.0,94,0.00,,FEW065,0.10,VWS V14.01,2013-02-20 04:10:00,
2013-02-19 23:15:00,39.3,37.7,29.95,West,270,0.0,0.0,94,0.00,,FEW065,0.10,VWS V14.01,2013-02-20 04:15:00,
2013-02-19 23:20:00,39.2,37.6,29.95,West,270,0.0,0.0,94,0.00,,FEW065,0.10,VWS V14.01,2013-02-20 04:20:00,
2013-02-19 23:30:00,38.5,37.2,29.95,West,270,0.0,0.0,95,0.00,,FEW065,0.10,VWS V14.01,2013-02-20 04:30:00,
2013-02-19 23:40:00,37.7,36.1,29.95,West,270,0.0,0.0,94,0.00,,FEW065,0.10,VWS V14.01,2013-02-20 04:40:00,
2013-02-19 23:45:00,37.5,36.2,29.95,West,270,0.0,0.0,95,0.00,,FEW065,0.10,VWS V14.01,2013-02-20 04:45:00,
2013-02-19 23:50:00,37.1,35.8,29.95,West,270,0.0,0.0,95,0.00,,FEW065,0.10,VWS V14.01,2013-02-20 04:50:00,